Regional Weather Roundup
Issued by NWS

Home | Current Version | Previous Version | Text Only | Print | Product List | Glossary Off
Versions: 1 2 3 4 5 6 7 8 9 10 11 12 13 14 15 16 17 18 19 20 21 22 23 24 25 26 27 28 29 30 31 32 33 34 35 36 37 38 39 40 41 42 43 44 45 46 47 48 49 50

000
ASUS44 KMEG 220100
RWRTN
TENNESSEE HOURLY STATE WEATHER ROUNDUP
NATIONAL WEATHER SERVICE MEMPHIS TN
800 PM CDT FRI JUL 21 2017

TNZ002-004-019-021-049-052-054-088>092-220200-
WEST TENNESSEE

CITY           SKY/WX    TMP DP  RH WIND       PRES   REMARKS
MEMPHIS INTL   PTCLDY    89  75  63 SW3       29.95F HX  99
NWS MEMPHIS      N/A     88 N/A N/A MISG        N/A
JACKSON        CLEAR     89  78  70 CALM      29.95F HX 103
$$

TNZ008-025-027-028-033-062-065-066-220200-
NORTH MIDDLE TENNESSEE

CITY           SKY/WX    TMP DP  RH WIND       PRES   REMARKS
NASHVILLE      PTCLDY    90  74  59 SW3       29.98R HX  99
CLARKSVILLE    CLEAR     88  75  65 SW5       29.95S HX  97
SMYRNA         CLEAR     89  73  59 CALM      29.98S HX  97
CROSSVILLE     MOCLDY    83  74  74 CALM      30.08R
$$

TNZ061-075-076-078-094-096-097-220200-
SOUTH MIDDLE TENNESSEE

CITY           SKY/WX    TMP DP  RH WIND       PRES   REMARKS
MCMINNVILLE    CLEAR     82  79  89 CALM      30.02S HX  93
$$

TNZ017-018-042-046-047-220200-
NORTHEAST TENNESSEE

CITY           SKY/WX    TMP DP  RH WIND       PRES   REMARKS
TRI CITIES     PTCLDY    83  70  64 CALM      30.04R
$$

TNZ012-013-036-069-073-074-220200-
CENTRAL EAST TENNESSEE

CITY           SKY/WX    TMP DP  RH WIND       PRES   REMARKS
KNOXVILLE      MOCLDY    89  69  51 NW5       30.00R HX  93
OAK RIDGE      CLEAR     86  74  67 CALM      30.02R HX  94
GATLINBURG     CLEAR     84  68  58 CALM      30.00R
$$

TNZ083-085-099-220200-
SOUTHEAST TENNESSEE

CITY           SKY/WX    TMP DP  RH WIND       PRES   REMARKS
CHATTANOOGA    MOCLDY    88  71  57 NW3       30.00R HX  94
$$

SKY/WX REPORTED AS FAIR MEANS FEW OR NO CLOUDS BELOW
12 THOUSAND FEET.




USA.gov is the U.S. government's official web portal to all federal, state and local government web resources and services.